Location: Christchurch
(43.5330°S, 172.6330°E)
Time: 10:55:40
(UTC+13:00)

Aureole 3 Rocket - Pass Details

Date: 24 January 2019
Orbit: 399 x 1742 km, 82.5° (Epoch: 18 February)

Event Time Altitude Azimuth Distance (km) Brightness Sun altitude
Rises 21:42:04 0° 187° (S) 2,429 6.8 -6.7°
Reaches altitude 10° 21:43:56 10° 184° (S) 1,618 5.8 -7.0°
Maximum altitude 21:47:21 74° 99° (E) 555 2.7 -7.5°
Drops below altitude 10° 21:51:42 10° 12° (NNE) 2,045 5.3 -8.1°
Enters shadow 21:53:50 - 11° (N) 2,951 6.1 -8.4°
